START_TIME,STEP,MOV.,EG07,t_acc.,EG08,t_acc.,EG09,t_acc.,EB05,t_acc.,EBP05,t_acc.
1979-03-07 09:00:20.570 ,7,0,0.,1.2,0.,1.2,0.,1.2,,0.0,,0.0
1979-03-07 09:00:21.770 ,7,0,0.,1.2,0.,1.2,0.,1.2,,0.0,,0.0
1979-03-07 09:00:22.970 ,7,0,0.,1.2,0.,1.2,0.,1.2,,0.0,,0.0
1979-03-07 09:00:24.170 ,7,0,0.,1.2,0.,1.2,0.,1.2,,0.0,,0.0
1979-03-07 09:00:25.370 ,7,0,0.,1.2,0.,1.2,0.,1.2,,0.0,,0.0
1979-03-07 09:00:26.570 ,7,0,0.,1.2,0.,1.2,0.,1.2,,0.0,,0.0
1979-03-07 09:00:27.770 ,7,0,0.,1.2,0.,1.2,0.,1.2,,0.0,,0.0
1979-03-07 09:00:28.970 ,7,0,0.,1.2,0.,1.2,0.,1.2,,0.0,,0.0
1979-03-07 09:00:30.170 ,7,0,0.,1.2,0.,1.2,0.,1.2,,0.0,,0.0
1979-03-07 09:00:31.370 ,7,0,0.,1.2,0.,1.2,0.,1.2,,0.0,,0.0
1979-03-07 09:00:32.570 ,7,0,0.,1.2,0.,1.2,0.,1.2,,0.0,,0.0
1979-03-07 09:00:33.770 ,7,0,0.,1.2,0.,1.2,0.,1.2,,0.0,,0.0
1979-03-07 09:00:34.970 ,7,0,0.,1.2,0.,1.2,0.,1.2,,0.0,,0.0
1979-03-07 09:00:36.170 ,7,0,0.,1.2,0.,1.2,0.,1.2,,0.0,,0.0
1979-03-07 09:00:37.370 ,7,0,0.,1.2,0.,1.2,0.,1.2,,0.0,,0.0
1979-03-07 09:00:38.570 ,7,0,0.,1.2,0.,1.2,0.,1.2,,0.0,,0.0
1979-03-07 09:00:39.770 ,7,0,0.,1.2,0.,1.2,0.,1.2,,0.0,,0.0
1979-03-07 09:00:40.970 ,7,0,0.,1.2,0.,1.2,0.,1.2,,0.0,,0.0
1979-03-07 09:00:42.170 ,7,0,0.,1.2,0.,1.2,0.,1.2,,0.0,,0.0
1979-03-07 09:00:43.370 ,7,0,0.,1.2,0.,1.2,0.,1.2,,0.0,,0.0
1979-03-07 09:00:44.570 ,6,0,0.,1.2,0.,1.2,0.,1.2,,0.0,,0.0
1979-03-07 09:00:45.770 ,6,0,0.,1.2,0.,1.2,0.,1.2,,0.0,,0.0
1979-03-07 09:00:46.970 ,6,0,0.,1.2,0.,1.2,0.,1.2,,0.0,,0.0
1979-03-07 09:00:48.170 ,6,0,0.,1.2,0.,1.2,0.,1.2,,0.0,,0.0
1979-03-07 09:00:49.370 ,6,0,0.,1.2,0.,1.2,0.,1.2,,0.0,,0.0
1979-03-07 09:00:50.570 ,6,0,0.,1.2,0.,1.2,0.,1.2,,0.0,,0.0
1979-03-07 09:00:51.770 ,6,0,0.,1.2,0.,1.2,0.,1.2,,0.0,,0.0
1979-03-07 09:00:52.970 ,6,0,0.,1.2,0.,1.2,0.,1.2,,0.0,,0.0
1979-03-07 09:00:54.170 ,6,0,0.,1.2,0.,1.2,0.,1.2,,0.0,,0.0
1979-03-07 09:00:55.370 ,6,0,0.,1.2,0.,1.2,0.,1.2,,0.0,,0.0
1979-03-07 09:00:56.570 ,6,0,0.,1.2,0.,1.2,0.,1.2,,0.0,,0.0
1979-03-07 09:00:57.770 ,6,0,0.,1.2,0.,1.2,0.,1.2,,0.0,,0.0
1979-03-07 09:00:58.970 ,6,0,0.,1.2,0.,1.2,0.,1.2,,0.0,,0.0
1979-03-07 09:01:00.170 ,6,0,0.,1.2,0.,1.2,0.,1.2,,0.0,,0.0
1979-03-07 09:01:01.370 ,6,0,0.,1.2,0.,1.2,0.,1.2,,0.0,,0.0
1979-03-07 09:01:02.570 ,6,0,0.,1.2,0.,1.2,0.,1.2,,0.0,,0.0
1979-03-07 09:01:03.770 ,6,0,0.,1.2,0.,1.2,0.,1.2,,0.0,,0.0
1979-03-07 09:01:04.970 ,6,0,0.,1.2,0.,1.2,0.,1.2,,0.0,,0.0
1979-03-07 09:01:06.170 ,6,0,0.,1.2,0.,1.2,0.,1.2,,0.0,,0.0
1979-03-07 09:01:07.370 ,6,0,0.,1.2,0.,1.2,0.,1.2,,0.0,,0.0
1979-03-07 09:01:08.570 ,5,0,0.,1.2,0.,1.2,0.,1.2,,0.0,,0.0
1979-03-07 09:01:09.770 ,5,0,0.,1.2,0.,1.2,0.,1.2,,0.0,,0.0
1979-03-07 09:01:10.970 ,5,0,0.,1.2,0.,1.2,0.,1.2,,0.0,,0.0
1979-03-07 09:01:12.170 ,5,0,0.,1.2,0.,1.2,0.,1.2,,0.0,,0.0
1979-03-07 09:01:13.370 ,5,0,0.,1.2,0.,1.2,0.,1.2,,0.0,,0.0
1979-03-07 09:01:14.570 ,5,0,0.,1.2,0.,1.2,0.,1.2,,0.0,,0.0
1979-03-07 09:01:15.770 ,5,0,0.,1.2,0.,1.2,0.,1.2,,0.0,,0.0
1979-03-07 09:01:16.970 ,5,0,0.,1.2,0.,1.2,0.,1.2,,0.0,,0.0
1979-03-07 09:01:18.170 ,5,0,0.,1.2,0.,1.2,0.,1.2,,0.0,,0.0
1979-03-07 09:01:19.370 ,5,0,0.,1.2,0.,1.2,0.,1.2,,0.0,,0.0
1979-03-07 09:01:20.570 ,5,0,0.,1.2,0.,1.2,0.,1.2,,0.0,,0.0
1979-03-07 09:01:21.770 ,5,0,0.,1.2,0.,1.2,0.,1.2,,0.0,,0.0
1979-03-07 09:01:22.970 ,5,0,0.,1.2,0.,1.2,0.,1.2,,0.0,,0.0
1979-03-07 09:01:24.170 ,5,0,0.,1.2,0.,1.2,0.,1.2,,0.0,,0.0
1979-03-07 09:01:25.370 ,5,0,0.,1.2,0.,1.2,0.,1.2,,0.0,,0.0
1979-03-07 09:01:26.570 ,5,0,0.,1.2,0.,1.2,0.,1.2,,0.0,,0.0
1979-03-07 09:01:27.770 ,5,0,0.,1.2,0.,1.2,0.,1.2,,0.0,,0.0
1979-03-07 09:01:28.970 ,5,0,0.,1.2,0.,1.2,0.,1.2,,0.0,,0.0
1979-03-07 09:01:30.170 ,5,0,0.,1.2,0.,1.2,0.,1.2,,0.0,,0.0
1979-03-07 09:01:31.370 ,5,0,0.,1.2,0.,1.2,0.,1.2,,0.0,,0.0
1979-03-07 09:01:32.570 ,4,0,0.,1.2,0.,1.2,0.,1.2,,0.0,,0.0
1979-03-07 09:01:33.770 ,4,0,0.,1.2,0.,1.2,0.,1.2,,0.0,,0.0
1979-03-07 09:01:34.970 ,4,0,0.,1.2,0.,1.2,0.,1.2,,0.0,,0.0
1979-03-07 09:01:36.170 ,4,0,0.,1.2,0.,1.2,0.,1.2,,0.0,,0.0
1979-03-07 09:01:37.370 ,4,0,0.,1.2,0.,1.2,0.,1.2,,0.0,,0.0
1979-03-07 09:01:38.570 ,4,0,0.,1.2,0.,1.2,0.,1.2,,0.0,,0.0
1979-03-07 09:01:39.770 ,4,0,0.,1.2,0.,1.2,0.,1.2,,0.0,,0.0
1979-03-07 09:01:40.970 ,4,0,0.,1.2,0.,1.2,0.,1.2,,0.0,,0.0
1979-03-07 09:01:42.170 ,4,0,0.,1.2,0.,1.2,0.,1.2,,0.0,,0.0
1979-03-07 09:01:43.370 ,4,0,0.,1.2,0.,1.2,0.,1.2,,0.0,,0.0
1979-03-07 09:01:44.570 ,4,0,0.,1.2,0.,1.2,0.,1.2,,0.0,,0.0
1979-03-07 09:01:45.770 ,4,0,0.,1.2,0.,1.2,0.,1.2,,0.0,,0.0
1979-03-07 09:01:46.970 ,4,0,0.,1.2,0.,1.2,0.,1.2,,0.0,,0.0
1979-03-07 09:01:48.170 ,4,0,0.,1.2,0.,1.2,0.,1.2,,0.0,,0.0
1979-03-07 09:01:49.370 ,4,0,0.,1.2,0.,1.2,0.,1.2,,0.0,,0.0
1979-03-07 09:01:50.570 ,4,0,0.,1.2,0.,1.2,0.,1.2,,0.0,,0.0
1979-03-07 09:01:51.770 ,4,0,0.,1.2,0.,1.2,0.,1.2,,0.0,,0.0
1979-03-07 09:01:52.970 ,4,0,0.,1.2,0.,1.2,0.,1.2,,0.0,,0.0
1979-03-07 09:01:54.170 ,4,0,0.,1.2,0.,1.2,0.,1.2,,0.0,,0.0
1979-03-07 09:01:55.370 ,4,0,0.,1.2,0.,1.2,0.,1.2,,0.0,,0.0
1979-03-07 09:01:56.570 ,3,0,0.,1.2,0.,1.2,0.,1.2,,0.0,,0.0
1979-03-07 09:01:57.770 ,3,0,0.,1.2,0.,1.2,0.,1.2,,0.0,,0.0
1979-03-07 09:01:58.970 ,3,0,0.,1.2,0.,1.2,0.,1.2,,0.0,,0.0
1979-03-07 09:02:00.170 ,3,0,0.,1.2,0.,1.2,0.,1.2,,0.0,,0.0
1979-03-07 09:02:01.370 ,3,0,0.,1.2,0.,1.2,0.,1.2,,0.0,,0.0
1979-03-07 09:02:02.570 ,3,0,0.,1.2,0.,1.2,0.,1.2,,0.0,,0.0
1979-03-07 09:02:03.770 ,3,0,0.,1.2,0.,1.2,0.,1.2,,0.0,,0.0
1979-03-07 09:02:04.970 ,3,0,0.,1.2,0.,1.2,0.,1.2,,0.0,,0.0
1979-03-07 09:02:06.170 ,3,0,0.,1.2,0.,1.2,0.,1.2,,0.0,,0.0
1979-03-07 09:02:07.370 ,3,0,0.,1.2,0.,1.2,0.,1.2,,0.0,,0.0
1979-03-07 09:02:08.570 ,3,0,0.,1.2,0.,1.2,0.,1.2,,0.0,,0.0
1979-03-07 09:02:09.770 ,3,0,0.,1.2,0.,1.2,0.,1.2,,0.0,,0.0
1979-03-07 09:02:10.970 ,3,0,0.,1.2,0.,1.2,0.,1.2,,0.0,,0.0
1979-03-07 09:02:12.170 ,3,0,0.,1.2,0.,1.2,0.,1.2,,0.0,,0.0
1979-03-07 09:02:13.370 ,3,0,0.,1.2,0.,1.2,0.,1.2,,0.0,,0.0
1979-03-07 09:02:14.570 ,3,0,0.,1.2,0.,1.2,0.,1.2,,0.0,,0.0
1979-03-07 09:02:15.770 ,3,0,0.,1.2,0.,1.2,0.,1.2,,0.0,,0.0
1979-03-07 09:02:16.970 ,3,0,0.,1.2,0.,1.2,0.,1.2,,0.0,,0.0
1979-03-07 09:02:18.170 ,3,0,0.,1.2,0.,1.2,0.,1.2,,0.0,,0.0
1979-03-07 09:02:19.370 ,3,0,0.,1.2,0.,1.2,0.,1.2,,0.0,,0.0
1979-03-07 09:02:20.570 ,2,0,0.,1.2,0.,1.2,0.,1.2,,0.0,,0.0
1979-03-07 09:02:21.770 ,2,0,0.,1.2,0.,1.2,0.,1.2,,0.0,,0.0
1979-03-07 09:02:22.970 ,2,0,0.,1.2,0.,1.2,0.,1.2,,0.0,,0.0
1979-03-07 09:02:24.170 ,2,0,0.,1.2,0.,1.2,0.,1.2,,0.0,,0.0
1979-03-07 09:02:25.370 ,2,0,0.,1.2,0.,1.2,0.,1.2,,0.0,,0.0
1979-03-07 09:02:26.570 ,2,0,0.,1.2,0.,1.2,0.,1.2,,0.0,,0.0
1979-03-07 09:02:27.770 ,2,0,0.,1.2,0.,1.2,0.,1.2,,0.0,,0.0
1979-03-07 09:02:28.970 ,2,0,0.,1.2,0.,1.2,0.,1.2,,0.0,,0.0
1979-03-07 09:02:30.170 ,2,0,0.,1.2,0.,1.2,0.,1.2,,0.0,,0.0
1979-03-07 09:02:31.370 ,2,0,0.,1.2,0.,1.2,0.,1.2,,0.0,,0.0
1979-03-07 09:02:32.570 ,2,0,0.,1.2,0.,1.2,0.,1.2,,0.0,,0.0
1979-03-07 09:02:33.770 ,2,0,0.,1.2,0.,1.2,0.,1.2,,0.0,,0.0
1979-03-07 09:02:34.970 ,2,0,0.,1.2,0.,1.2,0.,1.2,,0.0,,0.0
1979-03-07 09:02:36.170 ,2,0,0.,1.2,0.,1.2,0.,1.2,,0.0,,0.0
1979-03-07 09:02:37.370 ,2,0,0.,1.2,0.,1.2,0.,1.2,,0.0,,0.0
1979-03-07 09:02:38.570 ,2,0,0.,1.2,0.,1.2,0.,1.2,,0.0,,0.0
1979-03-07 09:02:39.770 ,2,0,0.,1.2,0.,1.2,0.,1.2,,0.0,,0.0
1979-03-07 09:02:40.970 ,2,0,0.,1.2,0.,1.2,0.,1.2,,0.0,,0.0
1979-03-07 09:02:42.170 ,2,0,0.,1.2,0.,1.2,0.,1.2,,0.0,,0.0
1979-03-07 09:02:43.370 ,2,0,0.,1.2,0.,1.2,0.,1.2,,0.0,,0.0
1979-03-07 09:02:44.570 ,1,0,0.,1.2,0.,1.2,0.,1.2,,0.0,,0.0
1979-03-07 09:02:45.770 ,1,0,0.,1.2,0.,1.2,0.,1.2,,0.0,,0.0
1979-03-07 09:02:46.970 ,1,0,0.,1.2,0.,1.2,0.,1.2,,0.0,,0.0
1979-03-07 09:02:48.170 ,1,0,0.,1.2,0.,1.2,0.,1.2,,0.0,,0.0
1979-03-07 09:02:49.370 ,1,0,0.,1.2,0.,1.2,0.,1.2,,0.0,,0.0
1979-03-07 09:02:50.570 ,1,0,0.,1.2,0.,1.2,0.,1.2,,0.0,,0.0
1979-03-07 09:02:51.770 ,1,0,0.,1.2,0.,1.2,0.,1.2,,0.0,,0.0
1979-03-07 09:02:52.970 ,1,0,0.,1.2,0.,1.2,0.,1.2,,0.0,,0.0
1979-03-07 09:02:54.170 ,1,0,0.,1.2,0.,1.2,0.,1.2,,0.0,,0.0
1979-03-07 09:02:55.370 ,1,0,0.,1.2,0.,1.2,0.,1.2,,0.0,,0.0
1979-03-07 09:02:56.570 ,1,0,0.,1.2,0.,1.2,0.,1.2,,0.0,,0.0
1979-03-07 09:02:57.770 ,1,0,0.,1.2,0.,1.2,0.,1.2,,0.0,,0.0
1979-03-07 09:02:58.970 ,1,0,0.,1.2,0.,1.2,0.,1.2,,0.0,,0.0
1979-03-07 09:03:00.170 ,1,0,0.,1.2,0.,1.2,0.,1.2,,0.0,,0.0
1979-03-07 09:03:01.370 ,1,0,0.,1.2,0.,1.2,0.,1.2,,0.0,,0.0
1979-03-07 09:03:02.570 ,1,0,0.,1.2,0.,1.2,0.,1.2,,0.0,,0.0
1979-03-07 09:03:03.770 ,1,0,0.,1.2,0.,1.2,0.,1.2,,0.0,,0.0
1979-03-07 09:03:04.970 ,1,0,0.,1.2,0.,1.2,0.,1.2,,0.0,,0.0
1979-03-07 09:03:06.170 ,1,0,0.,1.2,0.,1.2,0.,1.2,,0.0,,0.0
1979-03-07 09:03:07.370 ,1,0,0.,1.2,0.,1.2,0.,1.2,,0.0,,0.0
1979-03-07 09:03:08.570 ,0,0,0.,1.2,0.,1.2,0.,1.2,,0.0,,0.0
1979-03-07 09:03:09.770 ,0,0,0.,1.2,0.,1.2,0.,1.2,,0.0,,0.0
1979-03-07 09:03:10.970 ,0,0,0.,1.2,0.,1.2,0.,1.2,,0.0,,0.0
1979-03-07 09:03:12.170 ,0,0,0.,1.2,0.,1.2,0.,1.2,,0.0,,0.0
1979-03-07 09:03:13.370 ,0,0,0.,1.2,0.,1.2,0.,1.2,,0.0,,0.0
1979-03-07 09:03:14.570 ,0,0,0.,1.2,0.,1.2,0.,1.2,,0.0,,0.0
1979-03-07 09:03:15.770 ,0,0,0.,1.2,0.,1.2,0.,1.2,,0.0,,0.0
1979-03-07 09:03:16.970 ,0,0,0.,1.2,0.,1.2,0.,1.2,,0.0,,0.0
1979-03-07 09:03:18.170 ,0,0,0.,1.2,0.,1.2,0.,1.2,,0.0,,0.0
1979-03-07 09:03:19.370 ,0,0,0.,1.2,0.,1.2,0.,1.2,,0.0,,0.0
1979-03-07 09:03:20.570 ,0,0,0.,1.2,0.,1.2,0.,1.2,,0.0,,0.0
1979-03-07 09:03:21.770 ,0,0,0.,1.2,0.,1.2,0.,1.2,,0.0,,0.0
1979-03-07 09:03:22.970 ,0,0,0.,1.2,0.,1.2,0.,1.2,,0.0,,0.0
1979-03-07 09:03:24.170 ,0,0,0.,1.2,0.,1.2,0.,1.2,,0.0,,0.0
1979-03-07 09:03:25.370 ,0,0,0.,1.2,0.,1.2,0.,1.2,,0.0,,0.0
1979-03-07 09:03:26.570 ,0,0,0.,1.2,0.,1.2,0.,1.2,,0.0,,0.0
1979-03-07 09:03:27.770 ,0,0,0.,1.2,0.,1.2,0.,1.2,,0.0,,0.0
1979-03-07 09:03:28.970 ,0,0,0.,1.2,0.,1.2,0.,1.2,,0.0,,0.0
1979-03-07 09:03:30.170 ,0,0,0.,1.2,0.,1.2,0.,1.2,,0.0,,0.0
1979-03-07 09:03:31.370 ,0,0,0.,1.2,0.,1.2,0.,1.2,,0.0,,0.0
1979-03-07 09:03:32.570 ,0,0,0.,1.2,0.,1.2,0.,1.2,,0.0,,0.0
1979-03-07 09:03:33.770 ,0,0,0.,1.2,0.,1.2,0.,1.2,,0.0,,0.0
1979-03-07 09:03:34.970 ,0,0,0.,1.2,0.,1.2,0.,1.2,,0.0,,0.0
1979-03-07 09:03:36.170 ,0,0,0.,1.2,0.,1.2,0.,1.2,,0.0,,0.0
1979-03-07 09:03:37.370 ,0,0,0.,1.2,0.,1.2,0.,1.2,,0.0,,0.0
1979-03-07 09:03:38.570 ,0,0,0.,1.2,0.,1.2,0.,1.2,,0.0,,0.0
1979-03-07 09:03:39.770 ,0,0,0.,1.2,0.,1.2,0.,1.2,,0.0,,0.0
1979-03-07 09:03:40.970 ,0,0,0.,1.2,0.,1.2,0.,1.2,,0.0,,0.0
1979-03-07 09:03:42.170 ,0,0,0.,1.2,0.,1.2,0.,1.2,,0.0,,0.0
1979-03-07 09:03:43.370 ,0,0,0.,1.2,0.,1.2,0.,1.2,,0.0,,0.0
1979-03-07 09:03:44.570 ,0,0,0.,1.2,0.,1.2,0.,1.2,,0.0,,0.0
1979-03-07 09:03:45.770 ,0,0,0.,1.2,0.,1.2,0.,1.2,,0.0,,0.0
1979-03-07 09:03:46.970 ,0,0,0.,1.2,0.,1.2,0.,1.2,,0.0,,0.0
1979-03-07 09:03:48.170 ,0,0,0.,1.2,0.,1.2,0.,1.2,,0.0,,0.0
1979-03-07 09:03:49.370 ,0,0,0.,1.2,0.,1.2,0.,1.2,,0.0,,0.0
1979-03-07 09:03:50.570 ,0,0,0.,1.2,0.,1.2,0.,1.2,,0.0,,0.0
1979-03-07 09:03:51.770 ,0,0,0.,1.2,0.,1.2,0.,1.2,,0.0,,0.0
1979-03-07 09:03:52.970 ,0,0,0.,1.2,0.,1.2,0.,1.2,,0.0,,0.0
1979-03-07 09:03:54.170 ,0,0,0.,1.2,0.,1.2,0.,1.2,,0.0,,0.0
1979-03-07 09:03:55.370 ,0,0,0.,1.2,0.,1.2,0.,1.2,,0.0,,0.0
1979-03-07 09:03:56.570 ,1,0,0.,1.2,0.,1.2,0.,1.2,,0.0,,0.0
1979-03-07 09:03:57.770 ,1,0,0.,1.2,0.,1.2,0.,1.2,,0.0,,0.0
1979-03-07 09:03:58.970 ,1,0,0.,1.2,0.,1.2,0.,1.2,,0.0,,0.0
1979-03-07 09:04:00.170 ,1,0,0.,1.2,0.,1.2,0.,1.2,,0.0,,0.0
1979-03-07 09:04:01.370 ,1,0,0.,1.2,0.,1.2,0.,1.2,,0.0,,0.0
1979-03-07 09:04:02.570 ,1,0,0.,1.2,0.,1.2,0.,1.2,,0.0,,0.0
1979-03-07 09:04:03.770 ,1,0,0.,1.2,0.,1.2,0.,1.2,,0.0,,0.0
1979-03-07 09:04:04.970 ,1,0,0.,1.2,0.,1.2,0.,1.2,,0.0,,0.0
1979-03-07 09:04:06.170 ,1,0,0.,1.2,0.,1.2,0.,1.2,,0.0,,0.0
1979-03-07 09:04:07.370 ,1,0,0.,1.2,0.,1.2,0.,1.2,,0.0,,0.0
1979-03-07 09:04:08.570 ,1,0,0.,1.2,0.,1.2,0.,1.2,,0.0,,0.0
1979-03-07 09:04:09.770 ,1,0,0.,1.2,0.,1.2,0.,1.2,,0.0,,0.0
1979-03-07 09:04:10.970 ,1,0,0.,1.2,0.,1.2,0.,1.2,,0.0,,0.0
1979-03-07 09:04:12.170 ,1,0,0.,1.2,0.,1.2,0.,1.2,,0.0,,0.0
1979-03-07 09:04:13.370 ,1,0,0.,1.2,0.,1.2,0.,1.2,,0.0,,0.0
1979-03-07 09:04:14.570 ,1,0,0.,1.2,0.,1.2,0.,1.2,,0.0,,0.0
1979-03-07 09:04:15.770 ,1,0,0.,1.2,0.,1.2,0.,1.2,,0.0,,0.0
1979-03-07 09:04:16.970 ,1,0,0.,1.2,0.,1.2,0.,1.2,,0.0,,0.0
1979-03-07 09:04:18.170 ,1,0,0.,1.2,0.,1.2,0.,1.2,,0.0,,0.0
1979-03-07 09:04:19.370 ,1,0,0.,1.2,0.,1.2,0.,1.2,,0.0,,0.0
1979-03-07 09:04:20.570 ,2,0,0.,1.2,0.,1.2,0.,1.2,,0.0,,0.0
1979-03-07 09:04:21.770 ,2,0,0.,1.2,0.,1.2,0.,1.2,,0.0,,0.0
1979-03-07 09:04:22.970 ,2,0,0.,1.2,0.,1.2,0.,1.2,,0.0,,0.0
1979-03-07 09:04:24.170 ,2,0,0.,1.2,0.,1.2,0.,1.2,,0.0,,0.0
1979-03-07 09:04:25.370 ,2,0,0.,1.2,0.,1.2,0.,1.2,,0.0,,0.0
1979-03-07 09:04:26.570 ,2,0,0.,1.2,0.,1.2,0.,1.2,,0.0,,0.0
1979-03-07 09:04:27.770 ,2,0,0.,1.2,0.,1.2,0.,1.2,,0.0,,0.0
1979-03-07 09:04:28.970 ,2,0,0.,1.2,0.,1.2,0.,1.2,,0.0,,0.0
1979-03-07 09:04:30.170 ,2,0,0.,1.2,0.,1.2,0.,1.2,,0.0,,0.0
1979-03-07 09:04:31.370 ,2,0,0.,1.2,0.,1.2,0.,1.2,,0.0,,0.0
1979-03-07 09:04:32.570 ,2,0,0.,1.2,0.,1.2,0.,1.2,,0.0,,0.0
1979-03-07 09:04:33.770 ,2,0,0.,1.2,0.,1.2,0.,1.2,,0.0,,0.0
1979-03-07 09:04:34.970 ,2,0,0.,1.2,0.,1.2,0.,1.2,,0.0,,0.0
1979-03-07 09:04:36.170 ,2,0,0.,1.2,0.,1.2,0.,1.2,,0.0,,0.0
1979-03-07 09:04:37.370 ,2,0,0.,1.2,0.,1.2,0.,1.2,,0.0,,0.0
1979-03-07 09:04:38.570 ,2,0,0.,1.2,0.,1.2,0.,1.2,,0.0,,0.0
1979-03-07 09:04:39.770 ,2,0,0.,1.2,0.,1.2,0.,1.2,,0.0,,0.0
1979-03-07 09:04:40.970 ,2,0,0.,1.2,0.,1.2,0.,1.2,,0.0,,0.0
1979-03-07 09:04:42.170 ,2,0,0.,1.2,0.,1.2,0.,1.2,,0.0,,0.0
1979-03-07 09:04:43.370 ,2,0,0.,1.2,0.,1.2,0.,1.2,,0.0,,0.0
1979-03-07 09:04:44.570 ,3,0,0.,1.2,0.,1.2,0.,1.2,,0.0,,0.0
1979-03-07 09:04:45.770 ,3,0,0.,1.2,0.,1.2,0.,1.2,,0.0,,0.0
1979-03-07 09:04:46.970 ,3,0,0.,1.2,0.,1.2,0.,1.2,,0.0,,0.0
1979-03-07 09:04:48.170 ,3,0,0.,1.2,0.,1.2,0.,1.2,,0.0,,0.0
1979-03-07 09:04:49.370 ,3,0,0.,1.2,0.,1.2,0.,1.2,,0.0,,0.0
1979-03-07 09:04:50.570 ,3,0,0.,1.2,0.,1.2,0.,1.2,,0.0,,0.0
1979-03-07 09:04:51.770 ,3,0,0.,1.2,0.,1.2,0.,1.2,,0.0,,0.0
1979-03-07 09:04:52.970 ,3,0,0.,1.2,0.,1.2,0.,1.2,,0.0,,0.0
1979-03-07 09:04:54.170 ,3,0,0.,1.2,0.,1.2,0.,1.2,,0.0,,0.0
1979-03-07 09:04:55.370 ,3,0,0.,1.2,0.,1.2,0.,1.2,,0.0,,0.0
1979-03-07 09:04:56.570 ,3,0,0.,1.2,0.,1.2,0.,1.2,,0.0,,0.0
1979-03-07 09:04:57.770 ,3,0,0.,1.2,0.,1.2,0.,1.2,,0.0,,0.0
1979-03-07 09:04:58.970 ,3,0,0.,1.2,0.,1.2,0.,1.2,,0.0,,0.0
1979-03-07 09:05:00.170 ,3,0,0.,1.2,0.,1.2,0.,1.2,,0.0,,0.0
1979-03-07 09:05:01.370 ,3,0,0.,1.2,0.,1.2,0.,1.2,,0.0,,0.0
1979-03-07 09:05:02.570 ,3,0,0.,1.2,0.,1.2,0.,1.2,,0.0,,0.0
1979-03-07 09:05:03.770 ,3,0,0.,1.2,0.,1.2,0.,1.2,,0.0,,0.0
1979-03-07 09:05:04.970 ,3,0,0.,1.2,0.,1.2,0.,1.2,,0.0,,0.0
1979-03-07 09:05:06.170 ,3,0,0.,1.2,0.,1.2,0.,1.2,,0.0,,0.0
1979-03-07 09:05:07.370 ,3,0,0.,1.2,0.,1.2,0.,1.2,,0.0,,0.0
1979-03-07 09:05:08.570 ,4,0,0.,1.2,0.,1.2,0.,1.2,,0.0,,0.0
1979-03-07 09:05:09.770 ,4,0,0.,1.2,0.,1.2,0.,1.2,,0.0,,0.0
1979-03-07 09:05:10.970 ,4,0,0.,1.2,0.,1.2,0.,1.2,,0.0,,0.0
1979-03-07 09:05:12.170 ,4,0,0.,1.2,0.,1.2,0.,1.2,,0.0,,0.0
1979-03-07 09:05:13.370 ,4,0,0.,1.2,0.,1.2,0.,1.2,,0.0,,0.0
1979-03-07 09:05:14.570 ,4,0,0.,1.2,0.,1.2,0.,1.2,,0.0,,0.0
1979-03-07 09:05:15.770 ,4,0,0.,1.2,0.,1.2,0.,1.2,,0.0,,0.0
1979-03-07 09:05:16.970 ,4,0,0.,1.2,0.,1.2,0.,1.2,,0.0,,0.0
1979-03-07 09:05:18.170 ,4,0,0.,1.2,0.,1.2,0.,1.2,,0.0,,0.0
1979-03-07 09:05:19.370 ,4,0,0.,1.2,0.,1.2,0.,1.2,,0.0,,0.0
1979-03-07 09:05:20.570 ,4,0,0.,1.2,0.,1.2,0.,1.2,,0.0,,0.0
1979-03-07 09:05:21.770 ,4,0,0.,1.2,0.,1.2,0.,1.2,,0.0,,0.0
1979-03-07 09:05:22.970 ,4,0,0.,1.2,0.,1.2,0.,1.2,,0.0,,0.0
1979-03-07 09:05:24.170 ,4,0,0.,1.2,0.,1.2,0.,1.2,,0.0,,0.0
1979-03-07 09:05:25.370 ,4,0,0.,1.2,0.,1.2,0.,1.2,,0.0,,0.0
1979-03-07 09:05:26.570 ,4,0,0.,1.2,0.,1.2,0.,1.2,,0.0,,0.0
1979-03-07 09:05:27.770 ,4,0,0.,1.2,0.,1.2,0.,1.2,,0.0,,0.0
1979-03-07 09:05:28.970 ,4,0,0.,1.2,0.,1.2,0.,1.2,,0.0,,0.0
1979-03-07 09:05:30.170 ,4,0,0.,1.2,0.,1.2,0.,1.2,,0.0,,0.0
1979-03-07 09:05:31.370 ,4,0,0.,1.2,0.,1.2,0.,1.2,,0.0,,0.0
1979-03-07 09:05:32.570 ,5,0,0.,1.2,0.,1.2,0.,1.2,,0.0,,0.0
1979-03-07 09:05:33.770 ,5,0,0.,1.2,0.,1.2,0.,1.2,,0.0,,0.0
1979-03-07 09:05:34.970 ,5,0,0.,1.2,0.,1.2,0.,1.2,,0.0,,0.0
1979-03-07 09:05:36.170 ,5,0,0.,1.2,0.,1.2,0.,1.2,,0.0,,0.0
1979-03-07 09:05:37.370 ,5,0,0.,1.2,0.,1.2,0.,1.2,,0.0,,0.0
1979-03-07 09:05:38.570 ,5,0,0.,1.2,0.,1.2,0.,1.2,,0.0,,0.0
1979-03-07 09:05:39.770 ,5,0,0.,1.2,0.,1.2,0.,1.2,,0.0,,0.0
1979-03-07 09:05:40.970 ,5,0,0.,1.2,0.,1.2,0.,1.2,,0.0,,0.0
1979-03-07 09:05:42.170 ,5,0,0.,1.2,0.,1.2,0.,1.2,,0.0,,0.0
1979-03-07 09:05:43.370 ,5,0,0.,1.2,0.,1.2,0.,1.2,,0.0,,0.0
1979-03-07 09:05:44.570 ,5,0,0.,1.2,0.,1.2,0.,1.2,,0.0,,0.0
1979-03-07 09:05:45.770 ,5,0,0.,1.2,0.,1.2,0.,1.2,,0.0,,0.0
1979-03-07 09:05:46.970 ,5,0,0.,1.2,0.,1.2,0.,1.2,,0.0,,0.0
1979-03-07 09:05:48.170 ,5,0,0.,1.2,0.,1.2,0.,1.2,,0.0,,0.0
1979-03-07 09:05:49.370 ,5,0,0.,1.2,0.,1.2,0.,1.2,,0.0,,0.0
1979-03-07 09:05:50.570 ,5,0,0.,1.2,0.,1.2,0.,1.2,,0.0,,0.0
1979-03-07 09:05:51.770 ,5,0,0.,1.2,0.,1.2,0.,1.2,,0.0,,0.0
1979-03-07 09:05:52.970 ,5,0,0.,1.2,0.,1.2,0.,1.2,,0.0,,0.0
1979-03-07 09:05:54.170 ,5,0,0.,1.2,0.,1.2,0.,1.2,,0.0,,0.0
1979-03-07 09:05:55.370 ,5,0,0.,1.2,0.,1.2,0.,1.2,,0.0,,0.0
1979-03-07 09:05:56.570 ,6,0,0.,1.2,0.,1.2,0.,1.2,,0.0,,0.0
1979-03-07 09:05:57.770 ,6,0,0.,1.2,0.,1.2,0.,1.2,,0.0,,0.0
1979-03-07 09:05:58.970 ,6,0,0.,1.2,0.,1.2,0.,1.2,,0.0,,0.0
1979-03-07 09:06:00.170 ,6,0,0.,1.2,0.,1.2,0.,1.2,,0.0,,0.0
1979-03-07 09:06:01.370 ,6,0,0.,1.2,0.,1.2,0.,1.2,,0.0,,0.0
1979-03-07 09:06:02.570 ,6,0,0.,1.2,0.,1.2,0.,1.2,,0.0,,0.0
1979-03-07 09:06:03.770 ,6,0,0.,1.2,0.,1.2,0.,1.2,,0.0,,0.0
1979-03-07 09:06:04.970 ,6,0,0.,1.2,0.,1.2,0.,1.2,,0.0,,0.0
1979-03-07 09:06:06.170 ,6,0,0.,1.2,0.,1.2,0.,1.2,,0.0,,0.0
1979-03-07 09:06:07.370 ,6,0,0.,1.2,0.,1.2,0.,1.2,,0.0,,0.0
1979-03-07 09:06:08.570 ,6,0,0.,1.2,0.,1.2,0.,1.2,,0.0,,0.0
1979-03-07 09:06:09.770 ,6,0,0.,1.2,0.,1.2,0.,1.2,,0.0,,0.0
1979-03-07 09:06:10.970 ,6,0,0.,1.2,0.,1.2,0.,1.2,,0.0,,0.0
1979-03-07 09:06:12.170 ,6,0,0.,1.2,0.,1.2,0.,1.2,,0.0,,0.0
1979-03-07 09:06:13.370 ,6,0,0.,1.2,0.,1.2,0.,1.2,,0.0,,0.0
1979-03-07 09:06:14.570 ,6,0,0.,1.2,0.,1.2,0.,1.2,,0.0,,0.0
1979-03-07 09:06:15.770 ,6,0,0.,1.2,0.,1.2,0.,1.2,,0.0,,0.0
1979-03-07 09:06:16.970 ,6,0,0.,1.2,0.,1.2,0.,1.2,,0.0,,0.0
1979-03-07 09:06:18.170 ,6,0,0.,1.2,0.,1.2,0.,1.2,,0.0,,0.0
1979-03-07 09:06:19.370 ,6,0,0.,1.2,0.,1.2,0.,1.2,,0.0,,0.0
1979-03-07 09:06:20.570 ,7,0,0.,1.2,0.,1.2,0.,1.2,,0.0,,0.0
1979-03-07 09:06:21.770 ,7,0,0.,1.2,0.,1.2,0.,1.2,,0.0,,0.0
1979-03-07 09:06:22.970 ,7,0,0.,1.2,0.,1.2,0.,1.2,,0.0,,0.0
1979-03-07 09:06:24.170 ,7,0,0.,1.2,0.,1.2,0.,1.2,,0.0,,0.0
1979-03-07 09:06:25.370 ,7,0,0.,1.2,0.,1.2,0.,1.2,,0.0,,0.0
1979-03-07 09:06:26.570 ,7,0,0.,1.2,0.,1.2,0.,1.2,,0.0,,0.0
1979-03-07 09:06:27.770 ,7,0,0.,1.2,0.,1.2,0.,1.2,,0.0,,0.0
1979-03-07 09:06:28.970 ,7,0,0.,1.2,0.,1.2,0.,1.2,,0.0,,0.0
1979-03-07 09:06:30.170 ,7,0,0.,1.2,0.,1.2,0.,1.2,,0.0,,0.0
1979-03-07 09:06:31.370 ,7,0,0.,1.2,0.,1.2,0.,1.2,,0.0,,0.0
1979-03-07 09:06:32.570 ,7,0,0.,1.2,0.,1.2,0.,1.2,,0.0,,0.0
1979-03-07 09:06:33.770 ,7,0,0.,1.2,0.,1.2,0.,1.2,,0.0,,0.0
1979-03-07 09:06:34.970 ,7,0,0.,1.2,0.,1.2,0.,1.2,,0.0,,0.0
1979-03-07 09:06:36.170 ,7,0,0.,1.2,0.,1.2,0.,1.2,,0.0,,0.0
1979-03-07 09:06:37.370 ,7,0,0.,1.2,0.,1.2,0.,1.2,,0.0,,0.0
1979-03-07 09:06:38.570 ,7,0,0.,1.2,0.,1.2,0.,1.2,,0.0,,0.0
1979-03-07 09:06:39.770 ,7,0,0.,1.2,0.,1.2,0.,1.2,,0.0,,0.0
1979-03-07 09:06:40.970 ,7,0,0.,1.2,0.,1.2,0.,1.2,,0.0,,0.0
1979-03-07 09:06:42.170 ,7,0,0.,1.2,0.,1.2,0.,1.2,,0.0,,0.0
1979-03-07 09:06:43.370 ,7,0,0.,1.2,0.,1.2,0.,1.2,,0.0,,0.0
1979-03-07 09:06:44.570 ,7,0,0.,1.2,0.,1.2,0.,1.2,,0.0,,0.0
1979-03-07 09:06:45.770 ,7,0,0.,1.2,0.,1.2,0.,1.2,,0.0,,0.0
1979-03-07 09:06:46.970 ,7,0,0.,1.2,0.,1.2,0.,1.2,,0.0,,0.0
1979-03-07 09:06:48.170 ,7,0,0.,1.2,0.,1.2,0.,1.2,,0.0,,0.0
1979-03-07 09:06:49.370 ,7,0,0.,1.2,0.,1.2,0.,1.2,,0.0,,0.0
1979-03-07 09:06:50.570 ,7,0,0.,1.2,0.,1.2,0.,1.2,,0.0,,0.0
1979-03-07 09:06:51.770 ,7,0,0.,1.2,0.,1.2,0.,1.2,,0.0,,0.0
1979-03-07 09:06:52.970 ,7,0,0.,1.2,0.,1.2,0.,1.2,,0.0,,0.0
1979-03-07 09:06:54.170 ,7,0,0.,1.2,0.,1.2,0.,1.2,,0.0,,0.0
1979-03-07 09:06:55.370 ,7,0,0.,1.2,0.,1.2,0.,1.2,,0.0,,0.0
1979-03-07 09:06:56.570 ,7,0,0.,1.2,0.,1.2,0.,1.2,,0.0,,0.0
1979-03-07 09:06:57.770 ,7,0,0.,1.2,0.,1.2,0.,1.2,,0.0,,0.0
1979-03-07 09:06:58.970 ,7,0,0.,1.2,0.,1.2,0.,1.2,,0.0,,0.0
1979-03-07 09:07:00.170 ,7,0,0.,1.2,0.,1.2,0.,1.2,,0.0,,0.0
1979-03-07 09:07:01.370 ,7,0,0.,1.2,0.,1.2,0.,1.2,,0.0,,0.0
1979-03-07 09:07:02.570 ,7,0,0.,1.2,0.,1.2,0.,1.2,,0.0,,0.0
1979-03-07 09:07:03.770 ,7,0,0.,1.2,0.,1.2,0.,1.2,,0.0,,0.0
1979-03-07 09:07:04.970 ,7,0,0.,1.2,0.,1.2,0.,1.2,,0.0,,0.0
1979-03-07 09:07:06.170 ,7,0,0.,1.2,0.,1.2,0.,1.2,,0.0,,0.0
1979-03-07 09:07:07.370 ,7,0,0.,1.2,0.,1.2,0.,1.2,,0.0,,0.0
1979-03-07 09:07:08.570 ,6,0,0.,1.2,0.,1.2,0.,1.2,,0.0,,0.0
1979-03-07 09:07:09.770 ,6,0,0.,1.2,0.,1.2,0.,1.2,,0.0,,0.0
1979-03-07 09:07:10.970 ,6,0,0.,1.2,0.,1.2,0.,1.2,,0.0,,0.0
1979-03-07 09:07:12.170 ,6,0,0.,1.2,0.,1.2,0.,1.2,,0.0,,0.0
1979-03-07 09:07:13.370 ,6,0,0.,1.2,0.,1.2,0.,1.2,,0.0,,0.0
1979-03-07 09:07:14.570 ,6,0,0.,1.2,0.,1.2,0.,1.2,,0.0,,0.0
1979-03-07 09:07:15.770 ,6,0,0.,1.2,0.,1.2,0.,1.2,,0.0,,0.0
1979-03-07 09:07:16.970 ,6,0,0.,1.2,0.,1.2,0.,1.2,,0.0,,0.0
1979-03-07 09:07:18.170 ,6,0,0.,1.2,0.,1.2,0.,1.2,,0.0,,0.0
1979-03-07 09:07:19.370 ,6,0,0.,1.2,0.,1.2,0.,1.2,,0.0,,0.0
1979-03-07 09:07:20.570 ,6,0,0.,1.2,0.,1.2,0.,1.2,,0.0,,0.0
1979-03-07 09:07:21.770 ,6,0,0.,1.2,0.,1.2,0.,1.2,,0.0,,0.0
1979-03-07 09:07:22.970 ,6,0,0.,1.2,0.,1.2,0.,1.2,,0.0,,0.0
1979-03-07 09:07:24.170 ,6,0,0.,1.2,0.,1.2,0.,1.2,,0.0,,0.0
1979-03-07 09:07:25.370 ,6,0,0.,1.2,0.,1.2,0.,1.2,,0.0,,0.0
1979-03-07 09:07:26.570 ,6,0,0.,1.2,0.,1.2,0.,1.2,,0.0,,0.0
1979-03-07 09:07:27.770 ,6,0,0.,1.2,0.,1.2,0.,1.2,,0.0,,0.0
1979-03-07 09:07:28.970 ,6,0,0.,1.2,0.,1.2,0.,1.2,,0.0,,0.0
1979-03-07 09:07:30.170 ,6,0,0.,1.2,0.,1.2,0.,1.2,,0.0,,0.0
1979-03-07 09:07:31.370 ,6,0,0.,1.2,0.,1.2,0.,1.2,,0.0,,0.0
1979-03-07 09:07:32.570 ,5,0,0.,1.2,0.,1.2,0.,1.2,,0.0,,0.0
1979-03-07 09:07:33.770 ,5,0,0.,1.2,0.,1.2,0.,1.2,,0.0,,0.0
1979-03-07 09:07:34.970 ,5,0,0.,1.2,0.,1.2,0.,1.2,,0.0,,0.0
1979-03-07 09:07:36.170 ,5,0,0.,1.2,0.,1.2,0.,1.2,,0.0,,0.0
1979-03-07 09:07:37.370 ,5,0,0.,1.2,0.,1.2,0.,1.2,,0.0,,0.0
1979-03-07 09:07:38.570 ,5,0,0.,1.2,0.,1.2,0.,1.2,,0.0,,0.0
1979-03-07 09:07:39.770 ,5,0,0.,1.2,0.,1.2,0.,1.2,,0.0,,0.0
1979-03-07 09:07:40.970 ,5,0,0.,1.2,0.,1.2,0.,1.2,,0.0,,0.0
1979-03-07 09:07:42.170 ,5,0,0.,1.2,0.,1.2,0.,1.2,,0.0,,0.0
1979-03-07 09:07:43.370 ,5,0,0.,1.2,0.,1.2,0.,1.2,,0.0,,0.0
1979-03-07 09:07:44.570 ,5,0,0.,1.2,0.,1.2,0.,1.2,,0.0,,0.0
1979-03-07 09:07:45.770 ,5,0,0.,1.2,0.,1.2,0.,1.2,,0.0,,0.0
1979-03-07 09:07:46.970 ,5,0,0.,1.2,0.,1.2,0.,1.2,,0.0,,0.0
1979-03-07 09:07:48.170 ,5,0,0.,1.2,0.,1.2,0.,1.2,,0.0,,0.0
1979-03-07 09:07:49.370 ,5,0,0.,1.2,0.,1.2,0.,1.2,,0.0,,0.0
1979-03-07 09:07:50.570 ,5,0,0.,1.2,0.,1.2,0.,1.2,,0.0,,0.0
1979-03-07 09:07:51.770 ,5,0,0.,1.2,0.,1.2,0.,1.2,,0.0,,0.0
1979-03-07 09:07:52.970 ,5,0,0.,1.2,0.,1.2,0.,1.2,,0.0,,0.0
1979-03-07 09:07:54.170 ,5,0,0.,1.2,0.,1.2,0.,1.2,,0.0,,0.0
1979-03-07 09:07:55.370 ,5,0,0.,1.2,0.,1.2,0.,1.2,,0.0,,0.0
1979-03-07 09:07:56.570 ,4,0,0.,1.2,0.,1.2,0.,1.2,,0.0,,0.0
1979-03-07 09:07:57.770 ,4,0,0.,1.2,0.,1.2,0.,1.2,,0.0,,0.0
1979-03-07 09:07:58.970 ,4,0,0.,1.2,0.,1.2,0.,1.2,,0.0,,0.0
1979-03-07 09:08:00.170 ,4,0,0.,1.2,0.,1.2,0.,1.2,,0.0,,0.0
1979-03-07 09:08:01.370 ,4,0,0.,1.2,0.,1.2,0.,1.2,,0.0,,0.0
1979-03-07 09:08:02.570 ,4,0,0.,1.2,0.,1.2,0.,1.2,,0.0,,0.0
1979-03-07 09:08:03.770 ,4,0,0.,1.2,0.,1.2,0.,1.2,,0.0,,0.0
1979-03-07 09:08:04.970 ,4,0,0.,1.2,0.,1.2,0.,1.2,,0.0,,0.0
1979-03-07 09:08:06.170 ,4,0,0.,1.2,0.,1.2,0.,1.2,,0.0,,0.0
1979-03-07 09:08:07.370 ,4,0,0.,1.2,0.,1.2,0.,1.2,,0.0,,0.0
1979-03-07 09:08:08.570 ,4,0,0.,1.2,0.,1.2,0.,1.2,,0.0,,0.0
1979-03-07 09:08:09.770 ,4,0,0.,1.2,0.,1.2,0.,1.2,,0.0,,0.0